Rockport, TX

10:41 PM CST on November 19, 2017 (GMT -0600)
Aransas County

Weather History for KRKP - October, 2012

Change the Weather History Date:

Sunday, October 14, 2012

  Actual Average Record
Temperature  
Mean Temperature 83 °F -  
Max Temperature 89 °F 82 °F 93 °F (1984)
Min Temperature 75 °F 65 °F 50 °F (1969)
Cooling Degree Days 18    
Growing Degree Days 33 (Base 50)    
Moisture  
Dew Point 72 °F    
Average Humidity 72    
Maximum Humidity 87    
Minimum Humidity 55    
Precipitation  
Precipitation 0.00 in - - ()
Sea Level Pressure  
Sea Level Pressure 30.00 in    
Wind  
Wind Speed 8 mph (SSE)    
Max Wind Speed 14 mph    
Max Gust Speed 20 mph    
Visibility 10 miles    
Events      
Averages and records for this station are not official NWS values.
T = Trace of Precipitation, MM = Missing Value Source: NWS Daily Summary

Daily Weather History Graph

Daily Weather History Graph

Search for Another Location

Airport or City:

Trip Planner

Search our weather history database for the weather conditions in past years. The results will help you decide how hot, cold, wet, or windy it might be!

Date:

Astronomy

Oct. 14, 2012 Rise Set
Actual Time 7:28 AM CDT 6:59 PM CDT
Civil Twilight 7:04 AM CDT 7:22 PM CDT
Nautical Twilight 6:37 AM CDT 7:50 PM CDT
Astronomical Twilight 6:10 AM CDT 8:17 PM CDT
Moon 6:30 AM CDT (10/14) 6:21 PM CDT (10/14)
Length of Visible Light 12h 18m
Length of Day
11h 30m
Waning Crescent, 1% of the Moon is Illuminated
Oct 14
Waning Crescent
Oct 15
New
Oct 21
First Quarter
Oct 29
Full
Nov 6
Last Quarter

Hourly Weather History & Observations

Time (CDT) Temp. Heat Index Dew Point Humidity Pressure Visibility Wind Dir Wind Speed Gust Speed Precip Events Conditions
12:53 AM 81.0 °F 85.8 °F 73.0 °F 77% 29.96 in 10.0 mi SSE 11.5 mph 19.6 mph N/A   Partly Cloudy
1:53 AM 81.0 °F 85.8 °F 73.0 °F 77% 29.96 in 10.0 mi South 9.2 mph 17.3 mph N/A   Clear
2:53 AM 81.0 °F 85.8 °F 73.0 °F 77% 29.94 in 10.0 mi South 10.4 mph - N/A   Clear
3:53 AM 80.1 °F 84.2 °F 73.0 °F 79% 29.93 in 10.0 mi South 9.2 mph - N/A   Clear
4:53 AM 80.1 °F 84.2 °F 73.0 °F 79% 29.93 in 10.0 mi South 8.1 mph 17.3 mph N/A   Scattered Clouds
5:53 AM 80.1 °F 84.2 °F 73.0 °F 79% 29.95 in 10.0 mi South 6.9 mph - N/A   Partly Cloudy
6:53 AM 80.1 °F 84.5 °F 73.9 °F 81% 29.98 in 9.0 mi South 3.5 mph - N/A   Mostly Cloudy
7:53 AM 80.1 °F 84.5 °F 73.9 °F 81% 29.99 in 8.0 mi Variable 5.8 mph - N/A   Mostly Cloudy
8:53 AM 82.0 °F 87.4 °F 73.0 °F 74% 30.01 in 9.0 mi South 6.9 mph - N/A   Scattered Clouds
9:53 AM 84.0 °F 90.2 °F 73.0 °F 69% 30.04 in 10.0 mi South 8.1 mph - N/A   Mostly Cloudy
10:03 AM 84.2 °F 89.6 °F 71.6 °F 66% 30.04 in 10.0 mi South 6.9 mph - N/A   Mostly Cloudy
10:19 AM 84.2 °F 89.6 °F 71.6 °F 66% 30.04 in 10.0 mi South 11.5 mph - N/A   Scattered Clouds
10:53 AM 84.9 °F 90.1 °F 71.1 °F 63% 30.05 in 10.0 mi South 8.1 mph 17.3 mph N/A   Scattered Clouds
11:53 AM 84.9 °F 90.1 °F 71.1 °F 63% 30.05 in 10.0 mi SSE 8.1 mph - N/A   Partly Cloudy
12:53 PM 86.0 °F 90.7 °F 70.0 °F 59% 30.04 in 10.0 mi SSE 10.4 mph - N/A   Clear
1:53 PM 87.1 °F 92.0 °F 70.0 °F 57% 30.01 in 10.0 mi SSE 8.1 mph - N/A   Clear
2:53 PM 89.1 °F 95.0 °F 71.1 °F 55% 29.99 in 10.0 mi SE 13.8 mph - N/A   Clear
3:53 PM 84.9 °F 90.1 °F 71.1 °F 63% 29.99 in 10.0 mi SE 9.2 mph - N/A   Clear
4:53 PM 84.0 °F 89.0 °F 71.1 °F 65% 29.98 in 10.0 mi SE 10.4 mph - N/A   Clear
5:53 PM 84.0 °F 89.0 °F 71.1 °F 65% 29.98 in 10.0 mi SSE 9.2 mph - N/A   Clear
6:53 PM 82.0 °F 86.3 °F 71.1 °F 69% 29.99 in 10.0 mi SSE 6.9 mph - N/A   Clear
7:53 PM 81.0 °F 85.2 °F 72.0 °F 74% 29.99 in 10.0 mi South 5.8 mph - N/A   Clear
8:53 PM 80.1 °F 83.8 °F 72.0 °F 76% 30.01 in 10.0 mi SSE 3.5 mph - N/A   Clear
9:53 PM 79.0 °F - 72.0 °F 79% 30.01 in 10.0 mi SSE 3.5 mph - N/A   Clear
10:53 PM 77.0 °F - 72.0 °F 84% 30.03 in 10.0 mi Calm Calm - N/A   Clear
11:53 PM 75.0 °F - 71.1 °F 87% 30.02 in 9.0 mi Calm Calm - N/A   Clear